QPF
0.00 0.00 0.01 0.00 0.00 0.00 0.00 0.00 0.00 0.00 0.00 0.00 0.00 0.00 0.00 0.01 0.00 0.00 0.00 0.00 0.00 0.01 0.01 0.01 0.00 0.00 0.02 0.02 0.00 0.00 0.00 0.00 0.00 0.00 0.00 0.00 0.00 0.00 0.00 0.00 0.00 0.00 0.00
0.00 0.00 0.01 0.00 0.00 0.00 0.00 0.00 0.00 0.00 0.00 0.00 0.00 0.00 0.00 0.01 0.00 0.00 0.00 0.00 0.00 0.00 0.01 0.00 0.00 0.00 0.01 0.00 0.00 0.00 0.00 0.00 0.00 0.00 0.00 0.00 0.00 0.00 0.00 0.00 0.00 0.00 0.00
0.00 0.00 0.00 0.00 0.00 0.00 0.00 0.00 0.00 0.00 0.00 0.00 0.00 0.01 0.02 0.01 0.00 0.00 0.00 0.00 0.00 0.01 0.00 0.00 0.00 0.01 0.01 0.00 0.00 0.00 0.00 0.00 0.00 0.00 0.00 0.00 0.00 0.00 0.00 0.00 0.00 0.00 0.00
0.00 0.00 0.00 0.01 0.00 0.00 0.00 0.00 0.00 0.00 0.01 0.01 0.01 0.02 0.06 0.01 0.00 0.00 0.00 0.00 0.01 0.01 0.00 0.00 0.00 0.00 0.00 0.00 0.00 0.00 0.00 0.00 0.00 0.00 0.00 0.00 0.00 0.00 0.00 0.00 0.00 0.00 0.00
0.00 0.00 0.00 0.00 0.00 0.00 0.00 0.00 0.00 0.00 0.01 0.01 0.02 0.06 0.09 0.02 0.00 0.00 0.00 0.00 0.01 0.01 0.00 0.00 0.00 0.00 0.00 0.00 0.00 0.00 0.00 0.00 0.00 0.00 0.00 0.00 0.00 0.00 0.00 0.00 0.00 0.00 0.00
0.00 0.00 0.01 0.01 0.00 0.00 0.00 0.00 0.00 0.00 0.00 0.03 0.09 0.13 0.11 0.01 0.00 0.00 0.00 0.01 0.01 0.00 0.00 0.00 0.00 0.00 0.00 0.00 0.00 0.00 0.00 0.00 0.00 0.00 0.00 0.00 0.00 0.00 0.00 0.00 0.00 0.00 0.00
0.00 0.02 0.02 0.02 0.01 0.00 0.00 0.00 0.00 0.00 0.01 0.03 0.11 0.14 0.05 0.00 0.00 0.00 0.00 0.01 0.01 0.00 0.00 0.00 0.00 0.00 0.00 0.00 0.00 0.00 0.00 0.00 0.00 0.00 0.00 0.00 0.00 0.00 0.00 0.00 0.00 0.00 0.00
0.00 0.04 0.05 0.03 0.03 0.00 0.00 0.00 0.00 0.00 0.02 0.09 0.14 0.14 0.02 0.00 0.00 0.00 0.00 0.01 0.01 0.00 0.00 0.00 0.00 0.00 0.00 0.00 0.00 0.00 0.00 0.00 0.00 0.00 0.00 0.00 0.00 0.00 0.00 0.00 0.00 0.00 0.00
0.03 0.04 0.05 0.06 0.05 0.01 0.01 0.00 0.00 0.00 0.03 0.09 0.11 0.09 0.01 0.00 0.00 0.00 0.00 0.01 0.00 0.00 0.00 0.00 0.00 0.00 0.00 0.00 0.00 0.00 0.00 0.00 0.00 0.00 0.00 0.00 0.00 0.00 0.00 0.00 0.00 0.00 0.00
0.23 0.11 0.07 0.07 0.04 0.00 0.02 0.01 0.00 0.00 0.01 0.02 0.03 0.01 0.00 0.00 0.00 0.01 0.00 0.01 0.00 0.00 0.00 0.00 0.00 0.00 0.00 0.00 0.00 0.00 0.00 0.00 0.00 0.00 0.00 0.00 0.00 0.00 0.00 0.00 0.00 0.00 0.00
0.46 0.24 0.17 0.10 0.02 0.00 0.02 0.02 0.00 0.00 0.00 0.00 0.01 0.00 0.00 0.00 0.00 0.00 0.00 0.00 0.00 0.00 0.00 0.00 0.00 0.00 0.00 0.00 0.00 0.00 0.00 0.00 0.00 0.00 0.00 0.00 0.00 0.00 0.00 0.00 0.00 0.00 0.00
0.73 0.33 0.26 0.17 0.02 0.00 0.02 0.03 0.00 0.00 0.00 0.00 0.00 0.00 0.00 0.00 0.00 0.00 0.00 0.00 0.00 0.00 0.00 0.00 0.00 0.00 0.00 0.00 0.00 0.00 0.00 0.00 0.00 0.00 0.00 0.00 0.00 0.00 0.00 0.00 0.00 0.00 0.00
0.74 0.58 0.48 0.24 0.04 0.00 0.03 0.06 0.00 0.00 0.00 0.00 0.00 0.00 0.00 0.00 0.00 0.00 0.00 0.00 0.00 0.00 0.00 0.00 0.00 0.00 0.00 0.00 0.00 0.00 0.00 0.00 0.00 0.00 0.00 0.00 0.00 0.00 0.00 0.00 0.00 0.00 0.00
0.62 0.71 0.58 0.43 0.05 0.01 0.04 0.06 0.01 0.00 0.00 0.00 0.00 0.00 0.00 0.00 0.00 0.00 0.00 0.00 0.00 0.00 0.00 0.00 0.00 0.00 0.00 0.00 0.00 0.00 0.00 0.00 0.00 0.00 0.00 0.00 0.00 0.00 0.00 0.00 0.00 0.00 0.01
0.36 0.53 0.86 0.47 0.13 0.02 0.06 0.05 0.03 0.01 0.00 0.00 0.00 0.00 0.00 0.00 0.00 0.00 0.00 0.00 0.00 0.00 0.00 0.00 0.00 0.00 0.00 0.00 0.00 0.00 0.00 0.00 0.00 0.00 0.00 0.00 0.00 0.00 0.00 0.00 0.00 0.00 0.00
0.11 0.37 1.10 0.75 0.22 0.03 0.08 0.06 0.03 0.02 0.00 0.00 0.00 0.00 0.00 0.00 0.00 0.00 0.00 0.00 0.00 0.00 0.00 0.00 0.00 0.00 0.00 0.00 0.00 0.00 0.00 0.00 0.00 0.00 0.00 0.00 0.00 0.00 0.00 0.00 0.00 0.00 0.00
0.01 0.23 0.95 0.77 0.22 0.01 0.07 0.08 0.06 0.04 0.00 0.00 0.00 0.00 0.00 0.00 0.00 0.00 0.00 0.00 0.00 0.00 0.00 0.00 0.00 0.00 0.00 0.00 0.00 0.00 0.00 0.00 0.00 0.00 0.00 0.00 0.00 0.00 0.00 0.00 0.00 0.00 0.01
0.02 0.17 0.75 0.48 0.06 0.00 0.01 0.04 0.04 0.03 0.04 0.01 0.00 0.00 0.00 0.00 0.00 0.00 0.00 0.00 0.00 0.00 0.00 0.00 0.00 0.00 0.00 0.00 0.00 0.00 0.00 0.00 0.00 0.00 0.00 0.00 0.00 0.00 0.00 0.00 0.00 0.00 0.00
0.03 0.22 0.43 0.44 0.12 0.00 0.00 0.00 0.00 0.00 0.01 0.01 0.00 0.00 0.00 0.00 0.00 0.00 0.00 0.00 0.00 0.00 0.00 0.00 0.00 0.00 0.00 0.00 0.00 0.00 0.00 0.00 0.00 0.00 0.00 0.00 0.00 0.00 0.00 0.00 0.00 0.00 0.00
0.05 0.17 0.22 0.22 0.24 0.05 0.05 0.01 0.00 0.00 0.00 0.00 0.00 0.00 0.00 0.00 0.00 0.00 0.00 0.00 0.00 0.00 0.00 0.00 0.00 0.00 0.00 0.00 0.00 0.00 0.00 0.00 0.00 0.00 0.00 0.00 0.00 0.00 0.00 0.00 0.00 0.00 0.00
0.16 0.07 0.11 0.11 0.09 0.21 0.17 0.17 0.03 0.00 0.00 0.00 0.00 0.00 0.00 0.00 0.00 0.00 0.00 0.00 0.01 0.01 0.01 0.00 0.00 0.00 0.00 0.00 0.01 0.00 0.00 0.00 0.00 0.00 0.00 0.00 0.00 0.00 0.00 0.00 0.00 0.00 0.00
0.19 0.12 0.07 0.05 0.03 0.09 0.12 0.08 0.16 0.07 0.08 0.01 0.02 0.03 0.00 0.00 0.00 0.00 0.00 0.01 0.04 0.05 0.03 0.02 0.01 0.04 0.06 0.10 0.07 0.05 0.03 0.01 0.00 0.00 0.00 0.00 0.00 0.00 0.00 0.00 0.00 0.00 0.00
0.24 0.13 0.11 0.09 0.03 0.06 0.12 0.08 0.06 0.10 0.19 0.19 0.22 0.15 0.11 0.06 0.03 0.00 0.00 0.00 0.01 0.06 0.20 0.18 0.12 0.11 0.13 0.11 0.07 0.05 0.03 0.02 0.00 0.00 0.00 0.00 0.00 0.00 0.00 0.00 0.00 0.00 0.00
0.41 0.18 0.22 0.16 0.17 0.13 0.13 0.18 0.12 0.16 0.22 0.19 0.17 0.19 0.13 0.09 0.05 0.02 0.00 0.00 0.00 0.00 0.05 0.16 0.25 0.21 0.23 0.19 0.07 0.02 0.01 0.01 0.02 0.02 0.00 0.00 0.00 0.00 0.00 0.00 0.00 0.00 0.00
0.59 0.37 0.38 0.41 0.31 0.16 0.08 0.15 0.19 0.18 0.25 0.23 0.13 0.09 0.05 0.05 0.06 0.03 0.01 0.00 0.00 0.01 0.02 0.05 0.06 0.07 0.09 0.09 0.07 0.05 0.04 0.04 0.04 0.04 0.01 0.00 0.00 0.00 0.00 0.00 0.00 0.00 0.00
0.34 0.25 0.28 0.29 0.29 0.18 0.09 0.15 0.17 0.14 0.17 0.16 0.12 0.07 0.06 0.06 0.06 0.04 0.01 0.01 0.00 0.02 0.04 0.03 0.02 0.01 0.00 0.00 0.00 0.00 0.00 0.00 0.00 0.01 0.00 0.00 0.00 0.00 0.00 0.00 0.00 0.00 0.00
MSLP
1006.17 1007.69 1008.97 1009.41 1010.02 1010.38 1010.64 1010.79 1010.98 1011.28 1011.53 1011.79 1012.19 1012.62 1012.99 1013.25 1013.46 1013.65 1013.91 1014.15 1014.47 1014.52 1014.64 1014.92 1015.15 1015.34 1015.39 1015.59 1015.74 1015.90 1016.06 1016.18 1016.25 1016.24 1016.28 1016.27 1016.19 1016.21 1016.18 1016.01 1015.96 1016.17 1016.38
1006.32 1007.61 1008.83 1009.29 1009.92 1010.42 1010.63 1010.89 1011.08 1011.37 1011.64 1011.96 1012.27 1012.67 1013.11 1013.37 1013.65 1013.88 1014.12 1014.27 1014.51 1014.73 1014.95 1015.24 1015.56 1015.68 1015.82 1016.02 1016.27 1016.42 1016.54 1016.65 1016.61 1016.59 1016.54 1016.66 1016.70 1016.61 1016.57 1016.54 1016.48 1016.63 1016.68
1006.59 1007.72 1008.84 1009.29 1009.79 1010.38 1010.68 1010.94 1011.20 1011.43 1011.73 1012.03 1012.32 1012.62 1013.11 1013.53 1013.88 1014.10 1014.31 1014.50 1014.65 1014.94 1015.31 1015.60 1015.89 1016.07 1016.29 1016.55 1016.69 1016.79 1016.91 1016.91 1016.74 1016.54 1016.55 1016.55 1017.01 1017.09 1017.04 1017.02 1016.91 1016.91 1016.91
1006.68 1007.99 1008.63 1009.42 1009.84 1010.37 1010.81 1011.04 1011.32 1011.52 1011.78 1012.15 1012.40 1012.71 1013.21 1013.54 1013.99 1014.35 1014.51 1014.66 1014.84 1015.08 1015.60 1016.01 1016.25 1016.41 1016.68 1016.93 1017.03 1017.13 1017.19 1017.17 1016.98 1016.78 1016.33 1016.64 1017.10 1017.54 1017.48 1017.43 1017.43 1017.42 1017.23
1006.93 1008.22 1008.74 1009.60 1009.93 1010.45 1010.91 1011.25 1011.45 1011.62 1011.91 1012.28 1012.61 1012.92 1013.29 1013.61 1014.05 1014.40 1014.71 1014.90 1015.02 1015.39 1015.84 1016.28 1016.54 1016.73 1017.01 1017.22 1017.34 1017.46 1017.48 1017.26 1017.07 1016.69 1016.82 1017.01 1017.32 1017.90 1017.90 1017.82 1017.73 1017.86 1017.88
1007.30 1008.20 1009.46 1009.94 1010.18 1010.61 1011.07 1011.39 1011.66 1011.82 1012.04 1012.45 1012.72 1013.04 1013.45 1013.72 1014.17 1014.62 1014.89 1015.19 1015.36 1015.71 1016.12 1016.37 1016.69 1016.93 1017.14 1017.37 1017.52 1017.67 1017.68 1017.50 1017.41 1016.98 1017.17 1017.49 1017.83 1018.10 1018.14 1018.20 1018.22 1018.23 1018.23
1007.70 1008.30 1009.37 1010.08 1010.48 1010.71 1011.28 1011.57 1011.79 1012.01 1012.21 1012.60 1012.90 1013.28 1013.62 1013.97 1014.37 1014.79 1015.16 1015.40 1015.77 1016.12 1016.36 1016.49 1016.78 1017.08 1017.30 1017.47 1017.65 1017.81 1017.80 1017.58 1016.97 1017.17 1017.25 1017.66 1018.14 1018.29 1018.39 1018.46 1018.50 1018.52 1018.50
1007.83 1008.54 1009.09 1010.33 1010.69 1010.95 1011.30 1011.74 1011.99 1012.15 1012.33 1012.60 1013.12 1013.48 1013.78 1014.34 1014.69 1015.06 1015.41 1015.68 1015.98 1016.40 1016.66 1016.80 1016.99 1017.20 1017.41 1017.61 1017.79 1017.94 1017.91 1017.72 1017.14 1017.33 1017.47 1018.01 1018.41 1018.46 1018.58 1018.65 1018.68 1018.73 1018.75
1008.21 1008.75 1009.02 1010.12 1010.85 1011.27 1011.52 1011.87 1012.15 1012.34 1012.59 1012.93 1013.38 1013.76 1014.09 1014.76 1015.19 1015.41 1015.72 1016.02 1016.25 1016.64 1016.92 1017.12 1017.26 1017.44 1017.65 1017.77 1017.93 1018.10 1018.05 1017.87 1017.35 1017.48 1017.39 1018.03 1018.53 1018.57 1018.73 1018.89 1018.94 1018.96 1018.95
1008.98 1008.70 1009.26 1010.06 1010.71 1011.03 1011.70 1012.04 1012.36 1012.66 1012.98 1013.36 1013.73 1014.10 1014.63 1015.13 1015.60 1015.92 1016.09 1016.32 1016.62 1016.93 1017.22 1017.41 1017.56 1017.70 1017.88 1018.06 1018.16 1018.23 1018.21 1018.00 1017.32 1017.62 1017.61 1018.42 1018.69 1018.73 1018.84 1018.91 1018.96 1019.05 1019.12
1009.39 1009.38 1010.58 1010.30 1010.24 1010.51 1011.34 1012.00 1012.56 1012.88 1013.22 1013.62 1014.04 1014.48 1014.84 1015.45 1015.84 1016.20 1016.24 1016.65 1016.94 1017.21 1017.50 1017.63 1017.77 1017.94 1018.07 1018.18 1018.27 1018.37 1018.33 1017.38 1017.21 1017.31 1017.42 1018.43 1018.73 1018.80 1018.94 1019.03 1019.08 1019.12 1019.15
1008.22 1010.88 1011.33 1010.62 1010.26 1009.90 1010.79 1011.81 1012.11 1012.72 1012.96 1013.21 1013.82 1014.37 1014.47 1015.23 1015.46 1015.55 1016.53 1016.96 1017.20 1017.51 1017.69 1017.74 1017.86 1017.96 1018.02 1017.42 1017.95 1018.19 1017.83 1017.15 1017.20 1017.32 1017.61 1018.40 1018.66 1018.73 1018.83 1019.02 1019.06 1019.10 1019.13
1009.11 1010.28 1012.00 1010.82 1010.07 1009.29 1010.30 1011.12 1011.39 1012.29 1012.49 1012.75 1013.45 1014.00 1013.91 1014.51 1015.32 1015.73 1016.63 1016.97 1017.19 1017.58 1017.49 1017.73 1017.82 1017.54 1017.05 1016.85 1016.92 1016.96 1017.03 1017.19 1017.04 1017.27 1017.91 1018.35 1018.59 1018.70 1018.64 1018.66 1018.83 1018.91 1018.97
1009.88 1010.46 1009.58 1010.67 1009.79 1008.67 1009.71 1010.53 1010.61 1011.31 1011.79 1012.20 1013.10 1013.40 1013.66 1014.08 1014.94 1015.19 1015.80 1016.20 1016.41 1016.83 1016.48 1016.74 1016.66 1016.56 1016.86 1016.95 1016.78 1016.75 1016.88 1017.02 1017.04 1017.08 1017.60 1018.19 1018.44 1018.55 1018.64 1018.61 1018.68 1018.78 1018.88
1008.22 1009.29 1008.16 1009.58 1009.89 1008.80 1009.61 1010.22 1010.47 1010.78 1011.34 1012.14 1012.72 1013.27 1013.76 1014.24 1014.62 1014.93 1015.22 1015.68 1015.95 1016.08 1016.24 1016.34 1016.52 1016.46 1016.65 1016.57 1016.65 1016.74 1016.68 1016.69 1016.73 1016.86 1017.12 1017.86 1018.26 1018.47 1018.59 1018.63 1018.59 1018.49 1018.43
1006.79 1007.81 1008.30 1009.09 1010.12 1009.47 1009.70 1010.26 1010.78 1010.74 1011.11 1011.97 1012.79 1013.42 1013.80 1014.21 1014.53 1014.92 1015.11 1015.47 1015.77 1015.99 1016.14 1016.18 1016.29 1016.47 1016.46 1016.47 1016.51 1016.49 1016.53 1016.43 1016.59 1016.70 1016.86 1017.42 1017.67 1018.07 1018.27 1018.39 1018.33 1018.21 1018.06
1006.97 1006.76 1008.46 1009.39 1010.72 1009.85 1010.39 1010.47 1010.59 1010.81 1011.07 1011.88 1012.77 1013.39 1013.67 1014.10 1014.45 1014.72 1014.88 1015.37 1015.50 1015.68 1015.87 1016.11 1016.15 1016.35 1016.43 1016.35 1016.50 1016.36 1016.41 1016.32 1016.27 1016.35 1016.50 1016.67 1017.15 1017.56 1017.61 1017.68 1017.91 1018.02 1017.86
1006.98 1007.07 1007.41 1009.71 1010.69 1009.93 1010.17 1010.76 1010.54 1010.74 1011.31 1011.80 1012.45 1012.89 1013.35 1013.75 1014.21 1014.58 1014.76 1014.98 1015.14 1015.45 1015.84 1015.96 1016.16 1016.40 1016.48 1016.39 1016.41 1016.31 1016.40 1016.29 1016.14 1016.10 1016.18 1016.45 1016.70 1016.71 1017.35 1017.41 1017.56 1017.70 1017.71
1007.26 1007.56 1008.04 1009.44 1010.16 1009.72 1010.16 1010.72 1010.60 1010.70 1011.31 1011.59 1012.11 1012.69 1013.14 1013.50 1013.84 1014.04 1014.37 1014.58 1014.94 1015.41 1015.77 1015.94 1016.03 1016.17 1016.08 1016.17 1016.24 1016.11 1015.99 1016.17 1016.21 1016.02 1015.91 1015.95 1016.25 1016.76 1017.13 1017.12 1017.27 1017.31 1017.40
1007.62 1007.88 1008.50 1009.39 1009.74 1009.84 1010.18 1011.15 1011.09 1011.08 1011.28 1011.32 1011.88 1012.29 1012.81 1013.16 1013.67 1013.88 1014.20 1014.38 1014.76 1015.30 1015.50 1015.73 1015.84 1015.94 1016.08 1015.90 1015.91 1015.95 1016.01 1016.27 1016.11 1015.96 1015.81 1015.91 1016.29 1016.80 1017.17 1017.32 1017.14 1016.87 1017.15
1007.78 1008.44 1008.74 1009.72 1009.77 1009.44 1009.90 1010.37 1010.87 1011.32 1011.44 1011.48 1012.02 1012.26 1012.64 1012.97 1013.35 1013.79 1014.43 1014.57 1014.71 1015.03 1015.32 1015.56 1015.76 1015.90 1016.00 1016.10 1016.21 1016.22 1016.03 1015.93 1015.79 1015.73 1015.88 1016.17 1016.38 1016.73 1016.89 1017.10 1017.11 1017.00 1016.84
1007.60 1008.29 1008.67 1009.37 1009.92 1009.60 1009.72 1010.17 1010.62 1011.05 1011.56 1011.83 1012.10 1012.27 1012.57 1012.84 1013.31 1013.86 1014.54 1014.78 1015.08 1015.41 1015.68 1016.08 1016.46 1016.22 1015.99 1016.06 1016.46 1016.44 1016.11 1015.83 1015.45 1016.16 1016.33 1016.42 1016.61 1016.75 1016.90 1016.94 1017.23 1017.45 1017.07
1007.41 1008.22 1008.73 1009.00 1009.69 1009.77 1010.34 1010.44 1011.15 1011.59 1011.60 1012.25 1012.34 1012.44 1012.56 1012.86 1013.23 1013.84 1014.16 1014.72 1015.22 1015.55 1015.93 1015.76 1016.59 1016.76 1016.98 1016.39 1016.70 1016.62 1016.40 1016.10 1016.34 1015.92 1016.19 1016.44 1016.61 1016.68 1016.79 1016.90 1017.06 1017.30 1017.39
1007.54 1008.39 1009.10 1008.94 1009.72 1010.23 1010.91 1011.19 1011.73 1011.99 1012.06 1012.38 1012.33 1012.78 1012.88 1013.12 1013.22 1014.11 1014.33 1014.36 1014.90 1015.28 1015.73 1016.02 1016.33 1016.66 1017.24 1017.07 1016.83 1016.76 1016.67 1016.90 1017.13 1016.93 1016.79 1016.87 1016.69 1016.93 1016.83 1017.11 1017.07 1017.27 1017.63
1008.15 1008.76 1009.13 1009.87 1010.07 1009.99 1010.61 1011.07 1010.93 1011.83 1012.59 1012.99 1013.26 1013.44 1012.93 1012.60 1014.07 1013.91 1014.24 1014.88 1014.73 1014.79 1014.76 1015.69 1016.02 1016.11 1016.51 1017.03 1016.86 1017.16 1017.33 1017.40 1017.51 1017.46 1017.02 1017.05 1016.76 1016.98 1016.96 1017.40 1017.65 1017.50 1017.44
1008.97 1009.32 1009.45 1009.68 1009.79 1010.20 1010.59 1011.14 1011.84 1012.09 1012.65 1012.79 1013.01 1013.17 1013.42 1013.65 1013.56 1013.61 1013.93 1014.27 1014.36 1014.52 1013.91 1014.85 1015.66 1015.84 1016.23 1016.49 1016.52 1016.61 1016.69 1016.83 1016.73 1016.76 1017.00 1017.00 1016.93 1016.89 1017.16 1017.52 1017.68 1017.74 1017.80
Thickness
5795 5787 5778 5776 5772 5771 5772 5773 5772 5770 5769 5766 5762 5759 5757 5756 5755 5754 5751 5748 5745 5745 5744 5741 5739 5737 5737 5735 5734 5733 5732 5732 5732 5732 5732 5732 5732 5731 5731 5731 5730 5727 5724
5792 5783 5776 5774 5770 5768 5768 5769 5769 5767 5766 5763 5760 5758 5754 5753 5752 5751 5749 5747 5745 5742 5740 5737 5735 5734 5733 5732 5730 5729 5728 5728 5728 5729 5729 5728 5727 5727 5727 5727 5726 5723 5721
5783 5777 5771 5771 5769 5766 5765 5765 5765 5764 5763 5761 5758 5756 5753 5750 5749 5748 5746 5744 5743 5740 5737 5734 5731 5730 5728 5726 5726 5725 5724 5725 5726 5728 5728 5727 5724 5723 5723 5722 5722 5720 5719
5778 5769 5768 5766 5765 5762 5761 5761 5760 5760 5759 5757 5756 5754 5750 5749 5747 5744 5743 5742 5740 5738 5733 5730 5727 5726 5724 5722 5722 5722 5722 5722 5724 5726 5728 5725 5722 5718 5718 5718 5717 5716 5716
5770 5761 5762 5759 5759 5757 5756 5755 5756 5756 5754 5753 5751 5749 5748 5747 5745 5742 5740 5739 5738 5734 5730 5727 5725 5723 5721 5719 5719 5718 5718 5721 5722 5724 5723 5722 5719 5714 5714 5714 5713 5711 5711
5760 5755 5750 5749 5750 5751 5750 5750 5750 5751 5750 5748 5747 5746 5744 5744 5741 5738 5737 5734 5734 5731 5728 5725 5722 5721 5719 5717 5716 5715 5716 5718 5719 5721 5720 5717 5715 5712 5712 5710 5709 5708 5708
5747 5749 5744 5742 5742 5744 5743 5743 5745 5745 5745 5743 5741 5739 5739 5739 5736 5734 5732 5731 5728 5726 5724 5723 5720 5718 5716 5715 5713 5712 5714 5716 5719 5718 5718 5715 5711 5710 5708 5707 5706 5705 5704
5739 5739 5738 5732 5734 5735 5736 5736 5738 5739 5740 5739 5736 5733 5734 5731 5730 5728 5727 5726 5724 5721 5719 5718 5717 5715 5713 5712 5710 5710 5711 5713 5716 5715 5714 5711 5708 5707 5705 5704 5703 5702 5701
5728 5728 5729 5724 5724 5725 5728 5729 5731 5732 5733 5731 5729 5727 5728 5724 5722 5722 5721 5719 5719 5716 5714 5713 5712 5711 5709 5709 5708 5707 5708 5709 5712 5711 5711 5707 5704 5704 5702 5700 5699 5698 5696
5709 5719 5719 5717 5716 5719 5720 5721 5722 5723 5723 5723 5722 5721 5719 5717 5715 5714 5714 5714 5712 5711 5709 5708 5707 5706 5706 5704 5704 5703 5704 5706 5709 5707 5707 5702 5699 5699 5698 5697 5696 5695 5693
5697 5693 5694 5705 5711 5715 5713 5714 5713 5715 5716 5716 5715 5714 5713 5709 5708 5707 5708 5707 5706 5705 5703 5703 5703 5702 5702 5701 5701 5701 5701 5706 5707 5707 5706 5700 5697 5695 5694 5693 5692 5691 5690
5679 5667 5677 5692 5702 5712 5709 5708 5710 5709 5712 5713 5710 5708 5710 5706 5706 5707 5702 5700 5700 5699 5698 5699 5699 5699 5699 5703 5700 5699 5701 5705 5705 5704 5702 5698 5695 5693 5692 5689 5689 5688 5687
5666 5673 5661 5684 5695 5710 5707 5705 5708 5705 5707 5710 5707 5705 5709 5708 5703 5701 5695 5695 5695 5694 5695 5694 5695 5697 5702 5703 5703 5703 5702 5700 5701 5700 5698 5695 5692 5689 5689 5688 5686 5685 5684
5652 5660 5679 5674 5687 5707 5701 5701 5707 5706 5707 5708 5704 5704 5705 5706 5701 5701 5698 5696 5696 5694 5698 5697 5698 5701 5699 5699 5700 5701 5700 5698 5698 5698 5695 5691 5689 5686 5684 5684 5682 5680 5678
5666 5661 5683 5671 5677 5695 5694 5696 5700 5703 5703 5701 5701 5700 5699 5697 5699 5698 5697 5695 5694 5694 5694 5695 5694 5696 5696 5697 5696 5696 5697 5696 5696 5695 5693 5689 5685 5683 5682 5680 5679 5679 5677
5669 5671 5675 5667 5666 5673 5684 5689 5691 5696 5697 5695 5694 5691 5692 5692 5693 5692 5692 5690 5689 5690 5689 5690 5691 5690 5691 5692 5692 5692 5692 5694 5692 5691 5691 5687 5686 5681 5679 5677 5677 5676 5676
5661 5673 5662 5658 5645 5662 5667 5677 5685 5688 5690 5689 5686 5685 5687 5686 5686 5686 5688 5685 5685 5686 5686 5686 5686 5686 5685 5687 5687 5687 5687 5689 5690 5689 5688 5686 5683 5680 5679 5678 5674 5671 5672
5659 5665 5665 5645 5644 5657 5665 5667 5677 5679 5680 5680 5679 5681 5681 5681 5681 5680 5682 5682 5682 5681 5681 5682 5682 5680 5679 5681 5681 5683 5681 5682 5684 5685 5683 5681 5679 5679 5675 5673 5670 5668 5668
5648 5654 5654 5646 5646 5657 5657 5659 5668 5674 5674 5674 5674 5674 5674 5675 5675 5678 5678 5680 5679 5675 5675 5676 5676 5676 5676 5676 5676 5678 5680 5677 5677 5678 5679 5678 5675 5670 5666 5667 5667 5666 5664
5641 5645 5645 5644 5647 5651 5652 5648 5657 5663 5665 5669 5669 5670 5670 5671 5669 5672 5672 5674 5673 5672 5673 5672 5672 5672 5672 5673 5673 5673 5674 5669 5670 5672 5673 5671 5666 5661 5657 5656 5658 5660 5657
5633 5637 5639 5633 5641 5651 5649 5649 5651 5652 5656 5662 5661 5663 5664 5663 5664 5665 5661 5664 5667 5669 5669 5669 5666 5665 5665 5665 5663 5663 5664 5665 5665 5666 5663 5660 5657 5654 5652 5650 5650 5650 5651
5633 5636 5640 5638 5639 5648 5651 5652 5652 5650 5649 5651 5655 5655 5653 5657 5659 5656 5654 5657 5658 5659 5660 5657 5652 5655 5659 5659 5652 5651 5648 5652 5657 5653 5651 5650 5647 5645 5643 5643 5639 5637 5641
5635 5636 5637 5639 5637 5645 5645 5647 5645 5646 5651 5646 5649 5652 5651 5652 5651 5648 5649 5649 5648 5649 5650 5653 5645 5644 5642 5649 5646 5643 5639 5640 5640 5648 5646 5643 5640 5639 5635 5633 5631 5628 5627
5632 5631 5629 5634 5632 5635 5636 5639 5639 5638 5639 5641 5642 5642 5642 5644 5646 5640 5640 5643 5641 5642 5642 5642 5640 5639 5633 5632 5635 5637 5638 5634 5626 5625 5632 5631 5633 5630 5629 5625 5624 5621 5617
5622 5624 5626 5622 5626 5635 5634 5634 5640 5636 5633 5631 5631 5631 5638 5645 5634 5638 5636 5632 5636 5639 5643 5637 5635 5635 5632 5625 5626 5622 5621 5620 5618 5616 5618 5617 5622 5620 5621 5615 5611 5611 5611
5610 5615 5620 5622 5627 5629 5632 5631 5629 5632 5629 5630 5630 5630 5630 5632 5639 5637 5632 5630 5631 5633 5644 5637 5630 5628 5624 5622 5620 5620 5619 5617 5618 5619 5613 5610 5611 5610 5608 5604 5600 5598 5597